DELTA 1 DEB, 21296

Orbit data source: Space-Track

DELTA 1 DEB, 21296 is space debris in SSO originally from a launch on Thu, 12 Jun 1975 UTC launched from the Air Force Western Test Range (AFWTR). Debris objects in space refer to the collection of defunct objects orbiting the Earth. Examples of debris include non-operational satellites, rocket bodies, and fragments generated from explosions, collisions, or faulty payload assembly.

Loading next visibility...
Identifier
21296, 1975-052AH
Orbit
SSO
Last TLE update
18 hours ago
Origin
Manufacturer
Unknown
Mission
Spacecraft
Bus & Motor
Unknown
Mass
Unknown
Launch date (UTC)
1975-06-12 (50 years ago)
Launch vehicle
Unknown
Launch site
Air Force Western Test Range (AFWTR)
Object type
Payload
Rocket body
Debris
Shape & HBR
Unknown
Radar Cross Section
Small (<0.1 m²)

Expand to show TLE details & history

TLE from 18 hours ago
0 DELTA 1 DEB
1 21296U 75052AH  25181.56270183  .00000092  00000-0  32312-3 0  9993
2 21296  99.5851  29.8995 0236910   4.7374  51.7386 13.10546610630238
Epoch: 2025-06-30T13:30Z
TLE epoch observation values (Epoch: 2025-06-30T13:30:17.438Z)
Latitude
57.45364°
Longitude
-106.8065°
Altitude
1,121.782 km
Speed
7.349 km/s
True Right ascension
00h 58m 32s
True Declination
57° 18' 18"
Sunlit
Object was in daylight at epoch
Visualization orbit readout
Latitude
-70.94185°
Longitude
60.00842°
Altitude
1,304.359 km
Speed
7.177 km/s
Apparent Right ascension
08h 19m 49s
Apparent Declination
-62° 47' 17"
Sunlit
Object is in daylight
Visualization observer readout
Local Sidereal Time
18:38:27
Azimuth
205.15° SW
Elevation
-62.575°
Doppler factor
1
Orbital elements
Apogee altitude
1,398.361 km
Perigee altitude
1,038.422 km
Semi-major axis
7,596.529 km
Eccentricity
0.02369
Inclination
99.5851°
RAAN
29.8995°
Arg. of periapsis
4.7374°
True anomaly
Unknown
Mean anomaly
51.7386°
Eccentric anomaly
Unknown
Mean motion
3.27809 °/min
Orbital period
109.82 mins
BSTAR
0.00032312
Loading maneuver chart data...
Loading SW <> Apogee altitude chart data...
Loading historical data...
Loading historical data...
Loading historical data...
Loading historical data...
Loading historical data...
Loading historical data...
Loading historical data...

DELTA 1 DEB Visibility forecast

Observer location: undefined°, undefined°

Span
Click to sort rows by Start time (UTC) header in descending order
Start Az.
Max El. time (UTC)
Max El. Az.
Max El.
End time (UTC)
End Az.
11 mins2025-07-01 13:09:34.103Z137.323° SSE2025-07-01 13:14:34.103Z72.767° E37.038°2025-07-01 13:20:34.103Z357.497° N
9 mins2025-07-01 14:59:34.103Z221.198° SW2025-07-01 15:03:34.103Z269.838° W23.833°2025-07-01 15:08:34.103Z320.461° NNW
14 mins2025-07-02 02:27:34.103Z22.207° NNE2025-07-02 02:33:34.103Z83.129° E42.315°2025-07-02 02:41:34.103Z183.956° SSW
10 mins2025-07-02 04:17:34.103Z341.082° N2025-07-02 04:21:34.103Z300.746° NW24.766°2025-07-02 04:27:34.103Z248.195° W
|